Weather observations for the past three days for
Greater Kankakee Airport
Imperial (Metric)
Date Time (cdt) Wind (mph) Vis. (mi.) Weather Sky Cond. Temperature (ºF) Relative Humidity Wind Chill (°F) Heat Index (°F) Pressure Precipitation (in)
Air Dwpt 6 hour altimeter (in) sea level (mb) 1 hr 3 hr 6 hr
Max. Min.
17 17:55 S 12 G 21 10.00 Partly Cloudy SCT090 SCT110 93.2 67.1 42% 97 29.9 0.0
17 17:35 S 13 G 17 10.00 Mostly Cloudy SCT065 SCT070 BKN090 90.7 67.1 46% 94 29.91 0.0
17 17:15 S 14 G 20 10.00 Mostly Cloudy BKN065 BKN075 91.6 67.5 45% 95 29.91 0.0
17 16:55 SW 15 G 21 10.00 Partly Cloudy SCT065 94.1 66.9 41% 98 29.91 0.0
17 16:35 SW 14 10.00 Partly Cloudy SCT060 93.9 66.7 41% 97 29.91 0.0
17 16:15 SW 15 G 18 10.00 Partly Cloudy SCT060 93.7 66.2 40% 97 29.92 0.0
17 15:55 SW 14 G 18 10.00 Fair CLR 94.5 64.9 38% 97 29.92 0.0
17 15:35 SW 14 G 23 10.00 Fair CLR 94.3 63.7 36% 96 29.93 0.0
17 15:15 SW 17 G 21 10.00 Fair CLR 94.1 64.4 38% 96 29.94 0.0
17 14:55 SW 10 G 21 10.00 Fair CLR 94.1 65.1 38% 97 29.95 0.0
17 14:35 SW 16 G 22 10.00 Fair CLR 92.7 65.5 41% 95 29.96 0.0
17 14:15 SW 15 G 21 10.00 Fair CLR 91.6 67.3 45% 95 29.97 0.0
17 13:55 SW 10 10.00 Fair CLR 91.2 68.5 47% 96 29.97 0.0
17 13:35 S 15 G 18 10.00 Partly Cloudy SCT060 SCT070 90.5 68.4 48% 95 29.97 0.0
17 13:15 S 8 10.00 Thunderstorm SCT065 SCT070 88 69.8 55% 93 29.99 0.0
17 12:55 S 14 10.00 Mostly Cloudy SCT050 BKN065 BKN080 90.5 70.7 92.5 77.4 52% 97 29.99 0.0
17 12:35 S 14 G 26 10.00 Mostly Cloudy BKN050 BKN070 BKN075 91.6 68.7 47% 96 29.99 0.0
17 12:15 SW 16 G 24 10.00 Mostly Cloudy BKN050 BKN070 BKN080 91.9 68.5 46% 97 29.99 0.0
17 11:55 SW 12 10.00 Thunderstorm in Vicinity SCT050 90.9 68.5 48% 95 29.98 0.0
17 11:35 SW 15 10.00 Fair CLR 90.9 68.7 48% 95 29.99 0.0
17 11:15 SW 12 G 21 10.00 Partly Cloudy SCT049 88.7 68.5 51% 93 30 0.0
17 10:55 SW 15 G 22 10.00 Mostly Cloudy SCT049 BKN060 90.1 68.7 49% 95 30 0.0
17 10:35 SW 16 G 22 10.00 Fair CLR 89.8 69.1 51% 94 30.01 0.0
17 10:15 SW 13 G 18 10.00 Fair CLR 88.9 69.8 53% 94 30.01 0.0
17 09:55 SW 12 G 17 10.00 Fair CLR 88.5 70.3 55% 94 30.01 0.0
17 09:35 SW 12 G 17 10.00 Fair CLR 87.4 70.2 57% 93 30.01 0.0
17 09:15 SW 12 10.00 Fair CLR 86 70.5 60% 91 30.01 0.0
17 08:55 SW 14 G 20 10.00 Fair CLR 84.7 70.3 62% 89 30.02 0.0
17 08:35 SW 12 G 18 10.00 Fair CLR 83.8 70 63% 88 30.02 0.0
17 08:15 SW 12 G 17 10.00 Fair CLR 82.9 70 65% 87 30.02 0.0
17 07:55 SW 10 10.00 Fair CLR 82 69.6 66% 86 30.01 0.0
17 07:35 SW 8 10.00 Fair CLR 80.6 69.4 69% 84 30 0.0
17 07:15 S 7 10.00 Fair CLR 78.3 69.1 74% 81 29.99 0.0
17 06:55 SW 6 10.00 Fair CLR 77.2 68.9 82.4 74.8 76% 79 29.97 0.0
17 06:35 S 7 10.00 Fair CLR 76.1 68.2 77% 77 29.97 0.0
17 06:15 S 7 10.00 Fair CLR 75.6 68 77% 77 29.95 0.0
17 05:55 S 7 10.00 Fair CLR 75.2 68 78% 76 29.95 0.0
17 05:35 S 9 10.00 Fair CLR 75.2 67.8 78% 76 29.95 0.0
17 05:15 S 7 10.00 Fair CLR 75.7 68 77% 77 29.94 0.0
17 04:55 S 6 10.00 Fair CLR 75.6 68 77% 77 29.94 0.0
17 04:35 S 7 10.00 Fair CLR 76.1 68 76% 77 29.93 0.0
17 04:15 S 9 10.00 Fair CLR 76.6 68.2 75% 78 29.93 0.0
17 03:55 S 7 10.00 Fair CLR 77 68.4 75% 79 29.93 0.0
17 03:35 S 6 10.00 Fair CLR 78.6 68.4 71% 81 29.93 0.0
17 03:15 SW 9 10.00 Fair CLR 79.2 68.5 70% 82 29.93 0.0
17 02:55 SW 6 10.00 Fair CLR 79.2 68.7 70% 82 29.93 0.0
17 02:35 SW 6 10.00 Fair CLR 79.7 68.5 69% 82 29.93 0.0
17 02:15 SW 7 10.00 Fair CLR 80.1 68.4 68% 83 29.93 0.0
17 01:55 SW 8 10.00 Fair CLR 81 68.4 66% 84 29.93 0.0
17 01:35 SW 9 10.00 Fair CLR 81.7 68.2 64% 85 29.94 0.0
17 01:15 SW 12 G 17 10.00 Fair CLR 82.2 68.2 63% 85 29.94 0.0
17 00:55 S 12 10.00 Fair CLR 82 68.2 91.8 81.9 63% 85 29.94 0.0
17 00:35 SW 9 10.00 Fair CLR 82.4 68 62% 85 29.94 0.0
17 00:15 SW 12 10.00 Partly Cloudy SCT065 SCT080 83.3 67.6 59% 86 29.93 0.0
16 23:55 SW 12 10.00 Mostly Cloudy SCT065 BKN080 83.3 67.1 58% 86 29.93 0.0
16 23:35 SW 7 10.00 Overcast BKN065 OVC080 82.4 67.1 60% 85 29.93 0.0
16 23:15 S 6 10.00 Overcast BKN065 OVC080 82.4 66.4 58% 85 29.92 0.0
16 22:55 Calm 10.00 Overcast BKN065 OVC075 82.8 66.6 58% 85 29.92 0.0
16 22:35 Calm 10.00 Overcast BKN065 OVC075 82.8 66.9 59% 85 29.91 0.0
16 22:15 SW 3 10.00 Mostly Cloudy BKN065 83.1 67.1 59% 86 29.91 0.0
16 21:55 SW 5 10.00 Overcast OVC065 83.7 66.9 57% 86 29.9 0.0
16 21:35 Calm 10.00 Overcast OVC065 84.4 66.9 56% 87 29.9 0.0
16 21:15 SW 3 10.00 Mostly Cloudy BKN065 84.7 66.6 55% 87 29.89 0.0
16 20:55 SW 6 10.00 Partly Cloudy SCT065 85.5 66.4 53% 88 29.88 0.0
16 20:35 SW 6 10.00 Partly Cloudy SCT065 86.2 66.2 51% 89 29.87 0.0
16 20:15 SW 7 10.00 Fair CLR 87.6 65.8 48% 90 29.87 0.0
16 19:55 SW 7 10.00 Fair CLR 88.7 65.8 47% 91 29.87 0.0
16 19:35 SW 8 10.00 Fair CLR 90 64.8 43% 92 29.86 0.0
16 19:15 SW 14 10.00 Fair CLR 90.5 64.6 42% 92 29.87 0.0
16 18:55 W 14 10.00 Fair CLR 91.8 65.1 93.6 89.2 41% 94 29.86 0.0
16 18:35 SW 16 10.00 Fair CLR 92.7 64.9 40% 95 29.86 0.0
16 18:15 SW 16 10.00 Partly Cloudy SCT090 92.8 65.3 40% 95 29.87 0.0
16 17:55 SW 15 G 25 10.00 Partly Cloudy SCT070 SCT095 92.5 64.8 40% 95 29.87 0.0
16 17:35 SW 18 G 25 10.00 Partly Cloudy SCT070 SCT080 93 64.4 39% 95 29.87 0.0
16 17:15 SW 16 G 23 10.00 Partly Cloudy SCT070 92.1 64.6 40% 94 29.87 0.0
16 16:55 SW 17 G 25 10.00 Partly Cloudy SCT070 93.4 65.3 40% 96 29.87 0.0
16 16:35 SW 17 G 25 10.00 Partly Cloudy SCT070 93.2 65.5 40% 96 29.86 0.0
16 16:15 SW 10 G 20 10.00 Partly Cloudy SCT070 93.2 66.2 41% 96 29.86 0.0
16 15:55 S 16 G 21 10.00 Partly Cloudy SCT060 92.7 66.7 43% 96 29.86 0.0
16 15:35 SW 15 G 24 10.00 Fair CLR 93.2 66.2 41% 96 29.87 0.0
16 15:15 SW 16 G 23 10.00 Partly Cloudy SCT055 92.5 65.8 42% 95 29.89 0.0
16 14:55 SW 14 G 23 10.00 Partly Cloudy SCT055 92.1 66 42% 95 29.89 0.0
16 14:35 S 18 G 23 10.00 Mostly Cloudy BKN055 BKN070 91.6 66.2 43% 94 29.89 0.0
16 14:15 S 15 G 21 10.00 Mostly Cloudy BKN055 90.3 66.9 46% 94 29.89 0.0
16 13:55 SW 16 G 24 10.00 Fair CLR 90.7 66.2 45% 93 29.89 0.0
16 13:35 SW 14 10.00 Fair CLR 90.1 66.4 46% 93 29.9 0.0
16 13:15 S 16 G 26 10.00 Fair CLR 89.8 66.6 46% 93 29.91 0.0
16 12:55 SW 17 G 21 10.00 Partly Cloudy SCT050 89.4 66.6 89.4 68.9 47% 92 29.92 0.0
16 12:35 S 10 G 20 10.00 Fair CLR 88.7 67.3 49% 92 29.92 0.0
16 12:15 S 15 G 20 10.00 Fair CLR 87.4 65.7 48% 90 29.93 0.0
16 11:55 S 15 G 22 10.00 Fair CLR 86.4 64.2 48% 88 29.94 0.0
16 11:35 S 15 G 23 10.00 Fair CLR 85.6 63.1 47% 87 29.95 0.0
16 11:15 S 13 G 22 10.00 Fair CLR 85.1 62.6 47% 86 29.95 0.0
16 10:55 S 15 G 24 10.00 Fair CLR 84.4 62.1 47% 85 29.96 0.0
16 10:35 S 14 G 20 10.00 Fair CLR 82.8 60.3 47% 83 29.95 0.0
16 10:15 S 16 G 21 10.00 Fair CLR 81.5 59 46% 82 29.96 0.0
16 09:55 S 13 G 18 10.00 Fair CLR 80.6 58.3 47% 81 29.97 0.0
16 09:35 S 13 G 17 10.00 Fair CLR 78.6 57 48% 80 29.97 0.0
16 09:15 S 14 10.00 Fair CLR 77.4 55.9 48% 79 29.97 0.0
16 08:55 S 13 10.00 Partly Cloudy SCT055 76.3 54.1 46% 78 29.97 0.0
16 08:35 S 10 10.00 Fair CLR 75.6 54.3 48% 78 29.98 0.0
16 08:15 S 12 10.00 Fair CLR 73.6 53.4 49% 29.99 0.0
16 07:55 SE 13 G 17 10.00 Partly Cloudy SCT060 SCT070 72 52.3 50% 29.99 0.0
16 07:35 S 10 10.00 Mostly Cloudy BKN060 BKN095 71.1 51.4 50% 29.99 0.0
16 07:15 SE 12 G 17 10.00 Mostly Cloudy BKN060 BKN070 BKN095 69.6 51.3 52% 30 0.0
16 06:55 SE 13 G 17 10.00 Overcast BKN060 OVC070 68.7 51.8 68.7 61.7 55% 30 0.0
16 06:35 SE 7 10.00 Overcast BKN060 OVC070 66.4 53.2 63% 30 0.0
16 06:15 SE 6 10.00 Mostly Cloudy BKN060 64.8 53.6 67% 30 0.0
16 05:55 SE 6 10.00 Partly Cloudy SCT060 62.2 53.6 74% 30 0.0
16 05:35 SE 6 10.00 Fair CLR 62.4 53.1 72% 30 0.0
16 05:15 SE 6 10.00 Fair CLR 62.2 52.9 72% 30 0.0
16 04:55 SE 7 10.00 Fair CLR 62.8 52.7 70% 30 0.0
16 04:35 SE 5 10.00 Fair CLR 63.5 52.7 68% 29.99 0.0
16 04:15 SE 8 10.00 Fair CLR 63.5 52.7 68% 29.97 0.0
16 03:55 SE 7 10.00 Fair CLR 63 52.9 70% 29.98 0.0
16 03:35 SE 7 10.00 Fair CLR 63.3 52.9 69% 29.99 0.0
16 03:15 SE 8 10.00 Fair CLR 64.6 52.9 66% 29.99 0.0
16 02:55 SE 7 10.00 Fair CLR 65.3 52.7 64% 30 0.0
16 02:35 SE 7 10.00 Fair CLR 65.5 52.9 64% 29.99 0.0
16 02:15 SE 8 10.00 Fair CLR 65.3 52.7 64% 30 0.0
16 01:55 SE 6 10.00 Fair CLR 66.4 52.9 62% 30 0.0
16 01:35 SE 7 10.00 Fair CLR 67.5 52.7 59% 30.01 0.0
16 01:15 SE 8 10.00 Fair CLR 67.1 53.1 61% 30.01 0.0
16 00:55 SE 7 10.00 Fair CLR 66.6 53.6 81.1 64.9 63% 30.01 0.0
16 00:35 SE 6 10.00 Fair CLR 66.6 54.3 65% 30.02 0.0
16 00:15 SE 6 10.00 Fair CLR 65.7 54.7 68% 30.02 0.0
15 23:55 SE 7 10.00 Fair CLR 65.8 54.7 67% 30.02 0.0
15 23:35 SE 7 10.00 Fair CLR 65.1 54.5 69% 30.02 0.0
15 23:15 SE 5 10.00 Fair CLR 67.6 54.5 63% 30.02 0.0
15 22:55 SE 5 10.00 Fair CLR 68.7 54 59% 30.02 0.0
15 22:35 SE 6 10.00 Fair CLR 69.3 53.4 57% 30.01 0.0
15 22:15 SE 6 10.00 Fair CLR 71.8 52.3 50% 30.01 0.0
15 21:55 SE 7 10.00 Fair CLR 74.7 51.6 45% 30.01 0.0
15 21:35 SE 7 10.00 Fair CLR 75.7 51.4 43% 78 30.01 0.0
15 21:15 SE 7 10.00 Fair CLR 76.1 52 43% 78 30 0.0
15 20:55 SE 8 10.00 Fair CLR 76.5 52.3 43% 78 30 0.0
15 20:35 SE 8 10.00 Fair CLR 76.1 52.7 44% 78 30 0.0
15 20:15 SE 9 10.00 Fair CLR 77.7 52.3 41% 79 30 0.0
15 19:55 SE 9 10.00 Fair CLR 79.3 52.2 39% 79 30 0.0
15 19:35 SE 9 10.00 Fair CLR 80.1 52.5 39% 80 30 0.0
15 19:15 SE 13 G 20 10.00 Fair CLR 80.6 52.5 38% 80 30 0.0
15 18:55 SE 16 10.00 Fair CLR 81.3 53.4 85.6 81.3 38% 81 30 0.0
15 18:35 SE 15 10.00 Fair CLR 81.5 52.9 37% 81 30.02 0.0
15 18:15 S 10 G 18 10.00 Fair CLR 83.3 52.3 34% 82 30.03 0.0
15 17:55 SE 12 G 17 10.00 Fair CLR 84.2 53.2 35% 83 30.03 0.0
15 17:35 SE 8 10.00 Fair CLR 83.7 54.5 37% 83 30.04 0.0
15 17:15 SE 9 10.00 Fair CLR 84.9 53.8 34% 83 30.04 0.0
15 16:55 SE 12 10.00 Fair CLR 84.9 53.8 34% 83 30.05 0.0
15 16:35 SE 10 10.00 Fair CLR 84.2 55.2 37% 83 30.05 0.0
15 16:15 S 10 10.00 Fair CLR 84.6 54.5 36% 83 30.05 0.0
15 15:55 SE 7 10.00 Fair CLR 85.6 55.2 35% 84 30.06 0.0
15 15:35 S 9 G 16 10.00 Partly Cloudy SCT075 84.7 54.9 36% 83 30.06 0.0
15 15:15 S 9 G 17 10.00 Partly Cloudy SCT075 84.7 55 36% 83 30.06 0.0
15 14:55 SE 6 10.00 Fair CLR 85.1 55.6 37% 84 30.06 0.0
15 14:35 SE 8 10.00 Fair CLR 84.6 54.5 36% 83 30.06 0.0
15 14:15 SE 12 G 16 10.00 Fair CLR 83.8 55.9 39% 83 30.07 0.0
15 13:55 SE 13 10.00 Fair CLR 84.2 55.8 38% 83 30.07 0.0
15 13:35 S 8 10.00 Fair CLR 83.8 57 40% 83 30.08 0.0
15 13:15 S 8 G 16 10.00 Fair CLR 82.9 56.5 40% 82 30.09 0.0
15 12:55 S 7 10.00 Fair CLR 82.4 58.1 82.4 61.7 44% 82 30.09 0.0
15 12:35 S 8 10.00 Fair CLR 81.5 57.2 44% 81 30.1 0.0
15 12:15 SE 10 10.00 Fair CLR 81.1 58.3 46% 81 30.1 0.0
15 11:55 S 8 10.00 Fair CLR 81 58.5 46% 81 30.11 0.0
15 11:35 S 10 G 17 10.00 Fair CLR 79.7 58.1 48% 80 30.1 0.0
15 11:15 SE 10 10.00 Fair CLR 79.3 58.6 49% 80 30.1 0.0
15 10:55 SE 10 10.00 Fair CLR 78.6 58.5 50% 80 30.11 0.0
15 10:35 SE 13 10.00 Fair CLR 77.7 58.1 51% 79 30.11 0.0
15 10:15 SE 9 G 16 10.00 Fair CLR 76.3 58.8 55% 78 30.12 0.0
15 09:55 SE 12 10.00 Fair CLR 75.4 59.5 58% 78 30.12 0.0
15 09:35 SE 12 10.00 Fair CLR 74.3 59.5 60% 30.13 0.0
15 09:15 SE 10 G 17 10.00 Fair CLR 72.7 58.6 62% 30.12 0.0
15 08:55 SE 12 10.00 Fair CLR 70.7 58.3 65% 30.12 0.0
15 08:35 SE 12 10.00 Fair CLR 68.9 57.9 68% 30.12 0.0
15 08:15 SE 10 10.00 Fair CLR 68 57.9 70% 30.13 0.0
15 07:55 E 6 10.00 Fair CLR 66.6 58.8 76% 30.12 0.0
15 07:35 E 6 10.00 Fair CLR 63.3 58.8 85% 30.12 0.0
15 07:15 E 3 10.00 Fair CLR 62.2 58.8 89% 30.12 0.0
15 06:55 E 5 10.00 Fair CLR 61.7 58.1 61.7 57.9 88% 30.12 0.0
15 06:35 Calm 10.00 Fair CLR 60.4 57.6 90% 30.11 0.0
15 06:15 Calm 10.00 Fair CLR 60.8 57.2 88% 30.09 0.0
15 05:55 Calm 10.00 Fair CLR 60.3 56.8 89% 30.09 0.0
15 05:35 Calm 10.00 Fair CLR 59.2 56.5 91% 30.09 0.0
15 05:15 Calm 10.00 Fair CLR 58.5 55.9 91% 30.09 0.0
15 04:55 N 3 10.00 Fair CLR 58.3 55.6 91% 30.09 0.0
15 04:35 Calm 10.00 Fair CLR 58.6 55.4 89% 30.08 0.0
15 04:15 Calm 10.00 Fair CLR 58.1 55.4 91% 30.09 0.0
15 03:55 Calm 10.00 Fair CLR 58.5 55.6 90% 30.08 0.0
15 03:35 NE 3 10.00 Fair CLR 58.6 55.4 89% 30.07 0.0
15 03:15 NE 3 10.00 Fair CLR 58.8 55.8 90% 30.06 0.0
15 02:55 N 5 10.00 Fair CLR 59 55.4 88% 30.05 0.0
15 02:35 NE 3 10.00 Fair CLR 59.2 55.4 87% 30.06 0.0
15 02:15 NE 6 10.00 Fair CLR 59.7 55.4 86% 30.06 0.0
15 01:55 NE 5 10.00 Fair CLR 59.9 55.4 85% 30.07 0.0
15 01:35 NE 3 10.00 Fair CLR 59.9 55.4 85% 30.07 0.0
15 01:15 NE 5 10.00 Fair CLR 60.1 55.6 85% 30.07 0.0
15 00:55 NE 5 10.00 Fair CLR 59.9 55.4 77 59.9 85% 30.08 0.0
15 00:35 N 6 10.00 Fair CLR 60.1 55.4 85% 30.08 0.0
15 00:15 NE 3 10.00 Fair CLR 61 55.6 83% 30.08 0.0
14 23:55 NE 5 10.00 Fair CLR 61.2 55.6 82% 30.08 0.0
14 23:35 NE 6 10.00 Fair CLR 61.2 55.4 81% 30.08 0.0
14 23:15 NE 6 10.00 Fair CLR 61.3 55.6 81% 30.08 0.0
14 22:55 NE 5 10.00 Fair CLR 62.1 55.2 78% 30.07 0.0
14 22:35 NE 8 10.00 Fair CLR 63 54.9 75% 30.07 0.0
14 22:15 NE 12 10.00 Fair CLR 63.5 55.2 75% 30.06 0.0
14 21:55 NE 6 10.00 Fair CLR 63.5 57.2 80% 30.06 0.0
14 21:35 NE 7 10.00 Fair CLR 64.8 56.3 74% 30.06 0.0
14 21:15 NE 8 10.00 Fair CLR 66 56.1 71% 30.04 0.0
14 20:55 NE 7 10.00 Fair CLR 67.3 57.2 70% 30.04 0.0
14 20:35 NE 12 10.00 Fair CLR 68.4 57 67% 30.04 0.0
14 20:15 NE 13 G 17 10.00 Fair CLR 69.8 57.2 64% 30.03 0.0
14 19:55 NE 13 G 21 10.00 Fair CLR 71.4 56.8 60% 30.02 0.0
14 19:35 NE 20 G 24 10.00 Fair CLR 73.2 56.1 55% 30.02 0.0
14 19:15 NE 14 10.00 Fair CLR 75 56.5 53% 78 30.01 0.0
14 18:55 NE 14 G 18 10.00 Fair CLR 77.2 57.6 87.3 77.2 51% 79 30 0.0
14 18:35 NE 17 10.00 Fair CLR 79.5 58.5 49% 80 29.99 0.0
14 18:15 N 18 G 22 10.00 Fair CLR 82.2 57.7 43% 82 29.99 0.0
Date Time (cdt) Wind (mph) Vis. (mi.) Weather Sky Cond. Air Dwpt Max. Min. Relative Humidity Wind Chill (°F) Heat Index (°F) altimeter (in) sea level (mb) 1 hr 3 hr 6 hr
6 hour
Temperature (ºF) Pressure Precipitation (in)